GLD1620 SBPA-SBSP

Flight info

Callsign GLD1620
Flight time N/A
Altitude 39000
Route KORG2A ANLER UM540 ANISE ANIS1A
Aircraft A20N/M-SDE2E3FGHIRWXY/LB1

Departure

Time N/A
Airport Porto Alegre-Salgado Filho International Airport (SBPA)

Arrival

Time 2026-04-30 05:04
Airport Congonhas–Deputado Freitas Nobre Airport (SBSP)
Time Latitude Longitude Altitude Speed Heading
2026-04-30 04:31 -25.80610 -47.49939 38922 ft 471 kts 24°
2026-04-30 04:32 -25.77940 -47.47830 38920 ft 471 kts 24°
2026-04-30 04:32 -25.72606 -47.43619 38918 ft 471 kts 24°
2026-04-30 04:33 -25.67258 -47.39402 38918 ft 471 kts 24°
2026-04-30 04:33 -25.61913 -47.35193 38919 ft 471 kts 25°
2026-04-30 04:34 -25.56526 -47.30955 38926 ft 471 kts 25°
2026-04-30 04:34 -25.51186 -47.26759 38923 ft 471 kts 25°
2026-04-30 04:35 -25.45890 -47.22602 38921 ft 471 kts 25°
2026-04-30 04:35 -25.40565 -47.18424 38438 ft 467 kts 25°
2026-04-30 04:35 -25.37893 -47.16336 37599 ft 470 kts 26°
2026-04-30 04:36 -25.35215 -47.14249 36646 ft 473 kts 26°
2026-04-30 04:36 -25.32523 -47.12149 35739 ft 476 kts 27°
2026-04-30 04:36 -25.29807 -47.10029 34871 ft 477 kts 27°
2026-04-30 04:36 -25.27134 -47.07942 34000 ft 478 kts 28°
2026-04-30 04:37 -25.24412 -47.05816 32993 ft 479 kts 28°
2026-04-30 04:37 -25.21700 -47.03697 32191 ft 476 kts 28°
2026-04-30 04:37 -25.19013 -47.01596 31497 ft 471 kts 28°
2026-04-30 04:37 -25.16361 -46.99524 30799 ft 466 kts 28°
2026-04-30 04:38 -25.13711 -46.97523 30119 ft 459 kts 25°
2026-04-30 04:38 -25.10972 -46.95726 29318 ft 453 kts 24°
2026-04-30 04:38 -25.08282 -46.93966 28552 ft 449 kts 24°
2026-04-30 04:38 -25.05603 -46.92209 27822 ft 445 kts 24°
2026-04-30 04:39 -25.02926 -46.90453 27101 ft 440 kts 24°
2026-04-30 04:39 -25.00271 -46.88712 26405 ft 436 kts 24°
2026-04-30 04:39 -24.97708 -46.87033 25738 ft 432 kts 25°
2026-04-30 04:39 -24.95153 -46.85360 25088 ft 428 kts 25°
2026-04-30 04:40 -24.92596 -46.83686 24455 ft 424 kts 25°
2026-04-30 04:40 -24.90079 -46.82039 23816 ft 421 kts 25°
2026-04-30 04:40 -24.87565 -46.80395 23117 ft 418 kts 25°
2026-04-30 04:40 -24.85087 -46.78774 22436 ft 413 kts 25°
2026-04-30 04:41 -24.82629 -46.77166 21743 ft 409 kts 25°
2026-04-30 04:41 -24.80977 -46.76086 21286 ft 407 kts 25°
2026-04-30 04:41 -24.78564 -46.74510 20619 ft 403 kts 26°
2026-04-30 04:41 -24.76149 -46.72934 19948 ft 400 kts 26°
2026-04-30 04:42 -24.73770 -46.71382 19319 ft 397 kts 26°
2026-04-30 04:42 -24.71405 -46.69840 18702 ft 394 kts 26°
2026-04-30 04:42 -24.69046 -46.68302 18054 ft 391 kts 26°
2026-04-30 04:42 -24.66726 -46.66790 17476 ft 385 kts 26°
2026-04-30 04:43 -24.64442 -46.65300 16888 ft 380 kts 26°
2026-04-30 04:43 -24.62132 -46.63840 16287 ft 373 kts 21°
2026-04-30 04:43 -24.59745 -46.62883 15703 ft 362 kts
2026-04-30 04:43 -24.57249 -46.62526 15124 ft 351 kts 356°
2026-04-30 04:44 -24.54820 -46.62541 14530 ft 347 kts 355°
2026-04-30 04:44 -24.52418 -46.62555 13971 ft 344 kts 355°
2026-04-30 04:44 -24.50039 -46.62562 13358 ft 341 kts 355°
2026-04-30 04:44 -24.47671 -46.62567 12753 ft 337 kts 356°
2026-04-30 04:45 -24.45340 -46.62570 12154 ft 334 kts 356°
2026-04-30 04:45 -24.43030 -46.62573 11655 ft 329 kts 356°
2026-04-30 04:45 -24.40809 -46.62572 11499 ft 312 kts 356°
2026-04-30 04:45 -24.38687 -46.62570 11344 ft 298 kts 356°
2026-04-30 04:46 -24.36638 -46.62569 10965 ft 293 kts 356°
2026-04-30 04:46 -24.34598 -46.62572 10528 ft 291 kts 356°
2026-04-30 04:46 -24.32583 -46.62575 10116 ft 289 kts 356°
2026-04-30 04:46 -24.30582 -46.62577 9652 ft 287 kts 356°
2026-04-30 04:47 -24.28587 -46.62579 9182 ft 286 kts 356°
2026-04-30 04:47 -24.26550 -46.62579 8698 ft 284 kts 356°
2026-04-30 04:47 -24.24590 -46.62579 8261 ft 282 kts 356°
2026-04-30 04:47 -24.22628 -46.62580 7811 ft 280 kts 356°
2026-04-30 04:48 -24.20711 -46.62580 7443 ft 276 kts 356°
2026-04-30 04:48 -24.18830 -46.62579 7208 ft 267 kts 356°
2026-04-30 04:48 -24.16952 -46.62579 6822 ft 265 kts 356°
2026-04-30 04:48 -24.15113 -46.62581 6433 ft 264 kts 356°
2026-04-30 04:49 -24.13307 -46.62583 6037 ft 262 kts 356°
2026-04-30 04:49 -24.11466 -46.62585 5697 ft 259 kts 356°
2026-04-30 04:49 -24.09659 -46.62587 5580 ft 262 kts 357°
2026-04-30 04:49 -24.07864 -46.62589 5557 ft 259 kts 357°
2026-04-30 04:50 -24.06061 -46.62591 5387 ft 258 kts 357°
2026-04-30 04:50 -24.04269 -46.62594 5066 ft 257 kts 357°
2026-04-30 04:50 -24.02476 -46.62596 4632 ft 257 kts 358°
2026-04-30 04:50 -24.00694 -46.62599 4278 ft 256 kts 358°
2026-04-30 04:51 -23.98947 -46.62602 4108 ft 254 kts 359°
2026-04-30 04:51 -23.97138 -46.62602 4082 ft 257 kts 359°
2026-04-30 04:51 -23.95361 -46.62600 4088 ft 255 kts 359°
2026-04-30 04:51 -23.93557 -46.62600 4098 ft 255 kts 359°
2026-04-30 04:52 -23.91785 -46.62602 4106 ft 249 kts 359°
2026-04-30 04:52 -23.90098 -46.62600 4110 ft 233 kts 359°
2026-04-30 04:52 -23.88465 -46.62600 4120 ft 235 kts 359°
2026-04-30 04:52 -23.86833 -46.62603 4123 ft 234 kts 357°
2026-04-30 04:53 -23.85274 -46.62936 4129 ft 232 kts 338°
2026-04-30 04:53 -23.83880 -46.63803 4134 ft 231 kts 326°
2026-04-30 04:53 -23.82531 -46.64769 4138 ft 231 kts 326°
2026-04-30 04:53 -23.81530 -46.65471 4145 ft 232 kts 327°
2026-04-30 04:54 -23.80095 -46.66468 4143 ft 232 kts 327°
2026-04-30 04:54 -23.78708 -46.67428 4146 ft 232 kts 327°
2026-04-30 04:54 -23.77353 -46.68369 4153 ft 232 kts 327°
2026-04-30 04:54 -23.75997 -46.69311 4154 ft 231 kts 327°
2026-04-30 04:55 -23.74601 -46.70275 4157 ft 231 kts 327°
2026-04-30 04:55 -23.73235 -46.71220 4156 ft 232 kts 327°
2026-04-30 04:55 -23.71874 -46.72163 4159 ft 232 kts 327°
2026-04-30 04:55 -23.70499 -46.73117 4162 ft 232 kts 327°
2026-04-30 04:56 -23.69134 -46.74063 4160 ft 231 kts 327°
2026-04-30 04:56 -23.67775 -46.75005 4159 ft 232 kts 327°
2026-04-30 04:56 -23.66417 -46.75945 4162 ft 232 kts 327°
2026-04-30 04:56 -23.65055 -46.76887 4157 ft 232 kts 327°
2026-04-30 04:57 -23.63690 -46.77834 4157 ft 229 kts 327°
2026-04-30 04:57 -23.62389 -46.78735 4155 ft 215 kts 327°
2026-04-30 04:57 -23.61173 -46.79576 4155 ft 203 kts 327°
2026-04-30 04:57 -23.59998 -46.80389 4151 ft 192 kts 327°
2026-04-30 04:58 -23.58903 -46.81146 4150 ft 181 kts 327°
2026-04-30 04:58 -23.57880 -46.81848 4149 ft 169 kts 331°
2026-04-30 04:58 -23.56724 -46.82096 4155 ft 174 kts
2026-04-30 04:58 -23.55697 -46.81447 4154 ft 176 kts 51°
2026-04-30 04:59 -23.55033 -46.80322 4152 ft 177 kts 57°
2026-04-30 04:59 -23.54421 -46.79229 4152 ft 161 kts 57°
2026-04-30 04:59 -23.53862 -46.78243 4150 ft 145 kts 56°
2026-04-30 04:59 -23.53329 -46.77323 4158 ft 145 kts 56°
2026-04-30 05:00 -23.52792 -46.76408 4153 ft 143 kts 55°
2026-04-30 05:00 -23.52257 -46.75501 4138 ft 142 kts 55°
2026-04-30 05:00 -23.51801 -46.74544 4150 ft 144 kts 76°
2026-04-30 05:00 -23.51943 -46.73475 4157 ft 146 kts 118°
2026-04-30 05:01 -23.52622 -46.72652 4161 ft 148 kts 142°
2026-04-30 05:01 -23.53475 -46.72025 4164 ft 148 kts 149°
2026-04-30 05:01 -23.54339 -46.71441 4166 ft 142 kts 148°
2026-04-30 05:01 -23.55163 -46.70867 4161 ft 137 kts 148°
2026-04-30 05:02 -23.55966 -46.70308 4096 ft 138 kts 148°
2026-04-30 05:02 -23.56756 -46.69759 3921 ft 136 kts 147°
2026-04-30 05:02 -23.57558 -46.69200 3760 ft 135 kts 147°
2026-04-30 05:02 -23.58333 -46.68661 3586 ft 132 kts 147°
2026-04-30 05:03 -23.58854 -46.68298 3467 ft 131 kts 146°
2026-04-30 05:03 -23.59854 -46.67602 3222 ft 127 kts 147°
2026-04-30 05:03 -23.60351 -46.67256 3094 ft 126 kts 147°
2026-04-30 05:03 -23.61072 -46.66755 2923 ft 124 kts 147°
2026-04-30 05:04 -23.61812 -46.66243 2752 ft 123 kts 148°
2026-04-30 05:04 -23.62541 -46.65738 2614 ft 121 kts 147°
2026-04-30 05:04 -23.63087 -46.65359 2610 ft 37 kts 148°
2026-04-30 05:04 -23.63254 -46.65243 2609 ft 31 kts 147°
2026-04-30 05:05 -23.63355 -46.65209 2607 ft 13 kts 182°
2026-04-30 05:05 -23.63394 -46.65284 2602 ft 12 kts 303°
2026-04-30 05:05 -23.63381 -46.65294 2602 ft 0 kts 333°
2026-04-30 05:06 -23.63377 -46.65297 2602 ft 4 kts 327°
2026-04-30 05:06 -23.63322 -46.65336 2602 ft 14 kts 327°
2026-04-30 05:06 -23.63216 -46.65406 2602 ft 20 kts 330°
2026-04-30 05:07 -23.63082 -46.65501 2579 ft 24 kts 321°
2026-04-30 05:07 -23.62936 -46.65558 2603 ft 24 kts 331°
2026-04-30 05:07 -23.62804 -46.65667 2602 ft 26 kts 323°
2026-04-30 05:07 -23.62692 -46.65743 2602 ft 12 kts 306°
2026-04-30 05:08 -23.62689 -46.65773 2601 ft 3 kts 236°
2026-04-30 05:08 -23.62705 -46.65800 2600 ft 5 kts 237°
2026-04-30 05:08 -23.62719 -46.65823 2600 ft 1 kts 237°
2026-04-30 05:08 -23.62719 -46.65824 2600 ft 0 kts 237°